Location: ??????????
(42.1626°N, 44.1160°E)
Time: 14:06:03
(UTC+00:00)

CSL-04 Rocket - Pass Details

Date: 03 March 2021
Orbit: 805 x 861 km, 98.9° (Epoch: 20 April)

Event Time Altitude Azimuth Distance (km) Brightness Sun altitude
Rises 16:38:06 0° 177° (S) 3,422 6.7 -19.7°
Reaches altitude 10° 16:40:32 10° 182° (S) 2,489 6.1 -20.1°
Maximum altitude 16:45:56 54° 259° (W) 1,032 4.4 -21.1°
Drops below altitude 10° 16:51:22 10° 337° (NNW) 2,488 6.6 -22.1°
Sets 16:53:47 0° 342° (NNW) 3,421 7.3 -22.5°
